Location: Bittkow
(50.3000°N, 19.0000°E)
Time: 13:03:38
(UTC+00:00)

Cosmos 1602 - Pass Details

Date: 19 September 2020
Orbit: 513 x 535 km, 82.5° (Epoch: 22 October)

Event Time Altitude Azimuth Distance (km) Brightness Sun altitude
Rises 02:38:07 0° 342° (NNW) 2,647 7.4 -17.5°
Reaches altitude 10° 02:40:23 10° 332° (NNW) 1,753 6.3 -17.2°
Enters shadow 02:43:33 32° 278° (W) 904 4.4 -16.7°
